CanjetBLOCKVirtuelBLOCKQcBLOCKBLOCKBLOCKBLOCKBLOCKBLOCKBLOCKBLOCKBLOCKBLOCKBLOCKvolsBLOCKavecBLOCKFS-kACARS2021-06-22BLOCK03colon47pm

volsBLOCKBLOCKBLOCKBLOCKBLOCKpilotesBLOCKBLOCKBLOCKBLOCKBLOCKBLOCKBLOCKBLOCKtypeBLOCKBLOCKdepBLOCKBLOCKarrBLOCKBLOCKBLOCKBLOCKBLOCKaltBLOCKBLOCKBLOCKBLOCKBLOCKgsBLOCKBLOCKBLOCKBLOCKstatut

aucunBLOCKvolsBLOCKenBLOCKceBLOCKmomentBLOCKavecBLOCKFS-KACARSBLOCK













BLOCKAppuyerBLOCKsurBLOCKF5BLOCKpourBLOCKactualiserBLOCKBLOCKBLOCKMiseBLOCKaBLOCKjourcolonBLOCK15colon47colon05pmCanjetBLOCKvirtuelBLOCKQC

Bienvenue chez Canjetvirtuel-Q

Publié par Michel Ayotte le 2013-06-14

 

Canjetvirtuel-Québec est une compagnie aérienne virtuelle qui a été fondée par 2 passionnés de la simulation de vol.

Elle est opérée avec les Boeing 737. Exceptionnelement et pour votre plaisir tous les autres versions de Boeing et Airbus sont autorisées.

Ces appareils pouvant faire des vols cargos ou des vols passagers, que ce soit au Canada, Europe, États-Unis, Mexique, Caraïbes et autres destinations mondiales.

Vous trouverez votre place comme pilote chez nous!



Avis

Aux fins de la simulation de vol seulement. CanjetVirtuel Québec n'est en aucun cas affilié avec n'importe quelle compagnie aérienne du monde réel. CanjetVirtuel Québec est un site à but non lucratif gérée par des amateurs de simulation de vol. Toutes les images sont la propriété exclusive de leurs propriétaires respectifs.
| propulsé par phpVMS, © 2013-2020.

Notice

For flight simulation purposes only. CanjetVirtuel Quebec is in no way affiliated with any real world airline. CanjetVirtuel Quebec is a non-profit site run by flight simulation enthusiasts. All images are the sole property of their respective owners.
| powered by phpVMS, © 2013-2020.

Affiliations

Vatsim

Les statistiques du site

Nombre de pilotes: 14
Total des vols effectués: 8136
Trajets disponibles: 736
Passagers transportés: 2057718
Total des heures de vol: 27835
Distance totale (NM): 10891729
Pilotes en ligne: 0

Nouvelles

Bienvenue chez Canjetvirtuel-Q
06/14/2013

METAR

CYHZ 221900Z 16009KT 3/4SM R23/P6000FT/U R14/P6000FT/N -RA BR VV002 21/21 A2973 RMK FG8 SLP067 DENSITY ALT 1500FT

CYQB 221900Z 28006KT 250V350 30SM SCT035 OVC180 16/10 A2973 RMK SC3CI5 SLP068 DENSITY ALT 700FT

CYUL 221900Z 30008G15KT 250V320 30SM SCT025 OVC040 17/08 A2979 RMK SC3SC5 SLP089 DENSITY ALT 600FT

CYYZ 221900Z 34013KT 15SM BKN060 BKN100 18/03 A2989 RMK SC7AC1 AC TR SLP125 DENSITY ALT 1100FT